CZ-3C DEB, 40178

Orbit data source: Space-Track

CZ-3C DEB, 40178 is space debris in HEO originally from a launch on Sun, 31 Oct 2010 UTC launched from the Xichang Space Center, China (XSC). Debris objects in space refer to the collection of defunct objects orbiting the Earth. Examples of debris include non-operational satellites, rocket bodies, and fragments generated from explosions, collisions, or faulty payload assembly.

Not visible in the next 10 days
Identifier
40178, 2010-057AG
Orbit
HEO
Country
Flag of CNCN / PRC
Related business
Manufacturer
CALT
Mission
Spacecraft
Bus & Motor
Unknown
Mass
Unknown
Launch date (UTC)
2010-10-31 (15 years ago)
Launch vehicle
Unknown
Launch site
Xichang Space Center, China (XSC)
Object type
Payload
Rocket body
Debris
Shape & HBR
Unknown shape, 0.1 m
Radar Cross Section
Medium (>0.1 m² and <1 m²)

Expand to show TLE details & history
Last TLE update: 6 days ago

TLE from 6 days ago
0 CZ-3C DEB
1 40178U 10057AG  25344.16796497 -.00000249  00000-0 -12792-3 0  9991
2 40178  19.7654 348.1895 7217763 106.8024 357.6419  2.09758248 28208
Epoch: 2025-12-10T04:01Z
TLE epoch observation values (Epoch: 2025-12-10T04:01:52.173Z)
Latitude
19.83925°
Longitude
-64.8247°
Altitude
951.951 km
Speed
9.66 km/s
True Right ascension
04h 59m 08s
True Declination
19° 43' 57"
Sunlit
Object was in full shadow at epoch
Visualization orbit readout
Latitude
Unknown
Longitude
Unknown
Altitude
Unknown
Speed
Unknown
Apparent Right ascension
Unknown
Apparent Declination
Unknown
Sunlit
N/A
Visualization observer readout
Local Sidereal Time
19:05:02
Azimuth
Unknown
Elevation
Unknown
Doppler factor
Unknown
Orbital elements
Apogee altitude
38,013.864 km
Perigee altitude
795.215 km
Semi-major axis
25,782.676 km
Eccentricity
0.72178
Inclination
19.7654°
RAAN
348.1895°
Arg. of periapsis
106.8024°
True anomaly
339.30017°
Mean anomaly
357.6419°
Eccentric anomaly
351.60236°
Mean motion
0.52427 °/min
Orbital period
686.68 mins
BSTAR
-0.00012792
Loading maneuver chart data...
Computing Atmospheric mass density...
Loading historical data...
Loading historical data...
Loading historical data...
Loading historical data...
Loading historical data...
Loading historical data...
Loading historical data...

Documentation

Showing up to 5 results
|